Year,Month,Day,Hour,Minute,Value (Times are PST for windspeed in km/hr)
2014,10,27,00,00,0.00
2014,10,27,00,01,0.00
2014,10,27,00,02,0.10
2014,10,27,00,03,0.00
2014,10,27,00,04,0.00
2014,10,27,00,05,0.00
2014,10,27,00,06,0.00
2014,10,27,00,07,2.10
2014,10,27,00,08,0.00
2014,10,27,00,09,0.00
2014,10,27,00,10,0.00
2014,10,27,00,11,0.00
2014,10,27,00,12,0.00
2014,10,27,00,13,0.00
2014,10,27,00,14,2.10
2014,10,27,00,15,0.00
2014,10,27,00,16,0.70
2014,10,27,00,17,0.20
2014,10,27,00,18,0.00
2014,10,27,00,19,0.10
2014,10,27,00,20,3.90
2014,10,27,00,21,0.00
2014,10,27,00,22,0.00
2014,10,27,00,23,0.00
2014,10,27,00,24,0.00
2014,10,27,00,25,0.00
2014,10,27,00,26,0.40
2014,10,27,00,27,0.00
2014,10,27,00,28,0.00
2014,10,27,00,29,0.00
2014,10,27,00,30,0.00
2014,10,27,00,31,0.00
2014,10,27,00,32,0.00
2014,10,27,00,33,0.00
2014,10,27,00,34,0.00
2014,10,27,00,35,0.00
2014,10,27,00,36,0.00
2014,10,27,00,37,0.00
2014,10,27,00,38,0.00
2014,10,27,00,39,0.00
2014,10,27,00,40,0.00
2014,10,27,00,41,0.30
2014,10,27,00,42,0.00
2014,10,27,00,43,0.00
2014,10,27,00,44,0.00
2014,10,27,00,45,0.00
2014,10,27,00,46,0.00
2014,10,27,00,47,0.00
2014,10,27,00,48,0.00
2014,10,27,00,49,0.00
2014,10,27,00,50,0.00
2014,10,27,00,51,0.00
2014,10,27,00,52,2.50
2014,10,27,00,53,1.50
2014,10,27,00,54,1.90
2014,10,27,00,55,3.80
2014,10,27,00,56,8.40
2014,10,27,00,57,6.60
2014,10,27,00,58,4.10
2014,10,27,00,59,0.00
2014,10,27,01,00,0.00
2014,10,27,01,01,0.00
2014,10,27,01,02,0.00
2014,10,27,01,03,0.00
2014,10,27,01,04,0.00
2014,10,27,01,05,0.00
2014,10,27,01,06,0.00
2014,10,27,01,07,0.00
2014,10,27,01,08,0.60
2014,10,27,01,09,0.00
2014,10,27,01,10,0.10
2014,10,27,01,11,0.00
2014,10,27,01,12,0.00
2014,10,27,01,13,0.00
2014,10,27,01,14,0.00
2014,10,27,01,15,0.00
2014,10,27,01,16,0.00
2014,10,27,01,17,0.00
2014,10,27,01,18,0.10
2014,10,27,01,19,0.00
2014,10,27,01,20,0.00
2014,10,27,01,21,0.00
2014,10,27,01,22,0.00
2014,10,27,01,23,0.00
2014,10,27,01,24,0.00
2014,10,27,01,25,0.00
2014,10,27,01,26,0.00
2014,10,27,01,27,0.00
2014,10,27,01,28,0.00
2014,10,27,01,29,0.00
2014,10,27,01,30,0.00
2014,10,27,01,31,0.00
2014,10,27,01,32,0.00
2014,10,27,01,33,0.00
2014,10,27,01,34,0.00
2014,10,27,01,35,0.00
2014,10,27,01,36,0.00
2014,10,27,01,37,0.00
2014,10,27,01,38,0.00
2014,10,27,01,39,0.00
2014,10,27,01,40,0.00
2014,10,27,01,41,0.00
2014,10,27,01,42,0.00
2014,10,27,01,43,0.00
2014,10,27,01,44,0.00
2014,10,27,01,45,0.00
2014,10,27,01,46,0.00
2014,10,27,01,47,0.00
2014,10,27,01,48,0.00
2014,10,27,01,49,0.00
2014,10,27,01,50,0.00
2014,10,27,01,51,0.00
2014,10,27,01,52,0.00
2014,10,27,01,53,0.00
2014,10,27,01,54,0.00
2014,10,27,01,55,0.00
2014,10,27,01,56,0.00
2014,10,27,01,57,0.00
2014,10,27,01,58,0.00
2014,10,27,01,59,0.00
2014,10,27,02,00,0.00
2014,10,27,02,01,0.00
2014,10,27,02,02,0.00
2014,10,27,02,03,0.00
2014,10,27,02,04,0.00
2014,10,27,02,05,0.00
2014,10,27,02,06,0.00
2014,10,27,02,07,0.00
2014,10,27,02,08,0.00
2014,10,27,02,09,0.00
2014,10,27,02,10,0.00
2014,10,27,02,11,0.00
2014,10,27,02,12,0.00
2014,10,27,02,13,0.00
2014,10,27,02,14,0.00
2014,10,27,02,15,0.00
2014,10,27,02,16,0.00
2014,10,27,02,17,0.00
2014,10,27,02,18,0.00
2014,10,27,02,19,0.00
2014,10,27,02,20,0.00
2014,10,27,02,21,0.00
2014,10,27,02,22,0.00
2014,10,27,02,23,0.00
2014,10,27,02,24,0.00
2014,10,27,02,25,0.00
2014,10,27,02,26,0.00
2014,10,27,02,27,0.00
2014,10,27,02,28,0.00
2014,10,27,02,29,0.00
2014,10,27,02,30,0.00
2014,10,27,02,31,0.00
2014,10,27,02,32,0.00
2014,10,27,02,33,0.00
2014,10,27,02,34,0.00
2014,10,27,02,35,0.00
2014,10,27,02,36,0.00
2014,10,27,02,37,0.00
2014,10,27,02,38,0.00
2014,10,27,02,39,0.00
2014,10,27,02,40,0.00
2014,10,27,02,41,0.00
2014,10,27,02,42,0.00
2014,10,27,02,43,0.00
2014,10,27,02,44,0.00
2014,10,27,02,45,0.00
2014,10,27,02,46,0.00
2014,10,27,02,47,0.00
2014,10,27,02,48,0.00
2014,10,27,02,49,0.00
2014,10,27,02,50,0.00
2014,10,27,02,51,0.00
2014,10,27,02,52,0.00
2014,10,27,02,53,0.00
2014,10,27,02,54,0.00
2014,10,27,02,55,0.00
2014,10,27,02,56,0.00
2014,10,27,02,57,0.00
2014,10,27,02,58,0.00
2014,10,27,02,59,0.00
2014,10,27,03,00,0.00
2014,10,27,03,01,0.00
2014,10,27,03,02,0.50
2014,10,27,03,03,1.30
2014,10,27,03,04,0.00
2014,10,27,03,05,0.00
2014,10,27,03,06,0.00
2014,10,27,03,07,0.00
2014,10,27,03,08,0.00
2014,10,27,03,09,0.00
2014,10,27,03,10,0.00
2014,10,27,03,11,0.00
2014,10,27,03,12,0.00
2014,10,27,03,13,0.00
2014,10,27,03,14,0.00
2014,10,27,03,15,0.00
2014,10,27,03,16,0.00
2014,10,27,03,17,0.00
2014,10,27,03,18,0.00
2014,10,27,03,19,0.00
2014,10,27,03,20,0.00
2014,10,27,03,21,0.00
2014,10,27,03,22,0.00
2014,10,27,03,23,0.00
2014,10,27,03,24,0.00
2014,10,27,03,25,0.00
2014,10,27,03,26,0.00
2014,10,27,03,27,0.20
2014,10,27,03,28,0.00
2014,10,27,03,29,0.00
2014,10,27,03,30,0.00
2014,10,27,03,31,0.00
2014,10,27,03,32,0.00
2014,10,27,03,33,0.00
2014,10,27,03,34,0.00
2014,10,27,03,35,0.00
2014,10,27,03,36,0.00
2014,10,27,03,37,0.00
2014,10,27,03,38,0.00
2014,10,27,03,39,0.00
2014,10,27,03,40,0.00
2014,10,27,03,41,0.00
2014,10,27,03,42,0.00
2014,10,27,03,43,0.00
2014,10,27,03,44,0.00
2014,10,27,03,45,0.00
2014,10,27,03,46,0.00
2014,10,27,03,47,0.00
2014,10,27,03,48,0.00
2014,10,27,03,49,0.00
2014,10,27,03,50,0.00
2014,10,27,03,51,0.00
2014,10,27,03,52,0.00
2014,10,27,03,53,0.00
2014,10,27,03,54,0.00
2014,10,27,03,55,0.00
2014,10,27,03,56,0.00
2014,10,27,03,57,0.00
2014,10,27,03,58,0.00
2014,10,27,03,59,0.00
2014,10,27,04,00,0.00
2014,10,27,04,01,0.00
2014,10,27,04,02,0.00
2014,10,27,04,03,0.00
2014,10,27,04,04,0.00
2014,10,27,04,05,0.00
2014,10,27,04,06,0.00
2014,10,27,04,07,0.00
2014,10,27,04,08,0.00
2014,10,27,04,09,0.00
2014,10,27,04,10,0.00
2014,10,27,04,11,0.00
2014,10,27,04,12,0.00
2014,10,27,04,13,0.00
2014,10,27,04,14,0.00
2014,10,27,04,15,0.00
2014,10,27,04,16,0.00
2014,10,27,04,17,0.00
2014,10,27,04,18,0.00
2014,10,27,04,19,0.00
2014,10,27,04,20,0.00
2014,10,27,04,21,0.00
2014,10,27,04,22,0.00
2014,10,27,04,23,0.00
2014,10,27,04,24,0.00
2014,10,27,04,25,0.00
2014,10,27,04,26,0.00
2014,10,27,04,27,0.00
2014,10,27,04,28,0.00
2014,10,27,04,29,0.00
2014,10,27,04,30,0.00
2014,10,27,04,31,0.00
2014,10,27,04,32,0.00
2014,10,27,04,33,0.10
2014,10,27,04,34,1.40
2014,10,27,04,35,0.00
2014,10,27,04,36,0.00
2014,10,27,04,37,0.00
2014,10,27,04,38,0.00
2014,10,27,04,39,0.00
2014,10,27,04,40,0.00
2014,10,27,04,41,0.00
2014,10,27,04,42,0.00
2014,10,27,04,43,0.00
2014,10,27,04,44,0.00
2014,10,27,04,45,0.00
2014,10,27,04,46,0.00
2014,10,27,04,47,0.00
2014,10,27,04,48,0.00
2014,10,27,04,49,0.10
2014,10,27,04,50,0.00
2014,10,27,04,51,0.00
2014,10,27,04,52,0.00
2014,10,27,04,53,0.00
2014,10,27,04,54,0.00
2014,10,27,04,55,0.00
2014,10,27,04,56,0.00
2014,10,27,04,57,0.90
2014,10,27,04,58,0.70
2014,10,27,04,59,0.00
2014,10,27,05,00,1.60
2014,10,27,05,01,0.00
2014,10,27,05,02,0.10
2014,10,27,05,03,0.00
2014,10,27,05,04,0.00
2014,10,27,05,05,0.00
2014,10,27,05,06,0.00
2014,10,27,05,07,0.00
2014,10,27,05,08,0.00
2014,10,27,05,09,0.00
2014,10,27,05,10,0.00
2014,10,27,05,11,0.00
2014,10,27,05,12,0.00
2014,10,27,05,13,0.00
2014,10,27,05,14,0.00
2014,10,27,05,15,0.00
2014,10,27,05,16,0.00
2014,10,27,05,17,0.00
2014,10,27,05,18,0.00
2014,10,27,05,19,0.90
2014,10,27,05,20,2.30
2014,10,27,05,21,6.10
2014,10,27,05,22,4.90
2014,10,27,05,23,1.70
2014,10,27,05,24,3.00
2014,10,27,05,25,6.10
2014,10,27,05,26,3.50
2014,10,27,05,27,1.10
2014,10,27,05,28,0.00
2014,10,27,05,29,0.20
2014,10,27,05,30,3.50
2014,10,27,05,31,3.10
2014,10,27,05,32,1.10
2014,10,27,05,33,0.00
2014,10,27,05,34,0.00
2014,10,27,05,35,0.00
2014,10,27,05,36,0.10
2014,10,27,05,37,0.70
2014,10,27,05,38,0.90
2014,10,27,05,39,3.80
2014,10,27,05,40,1.90
2014,10,27,05,41,0.00
2014,10,27,05,42,0.00
2014,10,27,05,43,0.00
2014,10,27,05,44,0.00
2014,10,27,05,45,0.00
2014,10,27,05,46,0.00
2014,10,27,05,47,0.00
2014,10,27,05,48,0.00
2014,10,27,05,49,0.00
2014,10,27,05,50,0.00
2014,10,27,05,51,0.00
2014,10,27,05,52,0.00
2014,10,27,05,53,0.00
2014,10,27,05,54,0.00
2014,10,27,05,55,0.00
2014,10,27,05,56,0.00
2014,10,27,05,57,0.00
2014,10,27,05,58,0.00
2014,10,27,05,59,0.10
2014,10,27,06,00,0.00
2014,10,27,06,01,0.00
2014,10,27,06,02,0.00
2014,10,27,06,03,0.00
2014,10,27,06,04,0.00
2014,10,27,06,05,0.00
2014,10,27,06,06,0.00
2014,10,27,06,07,0.00
2014,10,27,06,08,0.00
2014,10,27,06,09,0.00
2014,10,27,06,10,0.00
2014,10,27,06,11,1.80
2014,10,27,06,12,3.20
2014,10,27,06,13,0.10
2014,10,27,06,14,0.00
2014,10,27,06,15,0.10
2014,10,27,06,16,0.00
2014,10,27,06,17,0.00
2014,10,27,06,18,1.70
2014,10,27,06,19,4.00
2014,10,27,06,20,3.10
2014,10,27,06,21,1.00
2014,10,27,06,22,1.70
2014,10,27,06,23,0.00
2014,10,27,06,24,0.00
2014,10,27,06,25,0.00
2014,10,27,06,26,0.00
2014,10,27,06,27,0.10
2014,10,27,06,28,0.00
2014,10,27,06,29,0.50
2014,10,27,06,30,2.60
2014,10,27,06,31,0.00
2014,10,27,06,32,0.00
2014,10,27,06,33,0.00
2014,10,27,06,34,0.30
2014,10,27,06,35,0.00
2014,10,27,06,36,0.00
2014,10,27,06,37,1.90
2014,10,27,06,38,0.80
2014,10,27,06,39,1.80
2014,10,27,06,40,2.60
2014,10,27,06,41,0.20
2014,10,27,06,42,0.00
2014,10,27,06,43,0.00
2014,10,27,06,44,0.00
2014,10,27,06,45,0.00
2014,10,27,06,46,0.00
2014,10,27,06,47,0.00
2014,10,27,06,48,0.00
2014,10,27,06,49,0.00
2014,10,27,06,50,0.00
2014,10,27,06,51,0.00
2014,10,27,06,52,0.00
2014,10,27,06,53,0.00
2014,10,27,06,54,0.00
2014,10,27,06,55,0.00
2014,10,27,06,56,0.00
2014,10,27,06,57,0.00
2014,10,27,06,58,0.00
2014,10,27,06,59,0.00
2014,10,27,07,00,0.00
2014,10,27,07,01,1.10
2014,10,27,07,02,1.60
2014,10,27,07,03,0.00
2014,10,27,07,04,0.00
2014,10,27,07,05,0.00
2014,10,27,07,06,1.80
2014,10,27,07,07,3.30
2014,10,27,07,08,0.70
2014,10,27,07,09,0.00
2014,10,27,07,10,0.00
2014,10,27,07,11,0.00
2014,10,27,07,12,0.00
2014,10,27,07,13,0.00
2014,10,27,07,14,0.00
2014,10,27,07,15,0.00
2014,10,27,07,16,0.00
2014,10,27,07,17,0.00
2014,10,27,07,18,0.00
2014,10,27,07,19,0.00
2014,10,27,07,20,2.00
2014,10,27,07,21,0.40
2014,10,27,07,22,0.00
2014,10,27,07,23,0.00
2014,10,27,07,24,0.20
2014,10,27,07,25,0.00
2014,10,27,07,26,0.00
2014,10,27,07,27,0.00
2014,10,27,07,28,0.00
2014,10,27,07,29,0.00
2014,10,27,07,30,4.70
2014,10,27,07,31,0.50
2014,10,27,07,32,0.00
2014,10,27,07,33,4.30
2014,10,27,07,34,5.00
2014,10,27,07,35,2.20
2014,10,27,07,36,3.50
2014,10,27,07,37,6.30
2014,10,27,07,38,7.70
2014,10,27,07,39,4.80
2014,10,27,07,40,2.50
2014,10,27,07,41,1.70
2014,10,27,07,42,4.70
2014,10,27,07,43,3.80
2014,10,27,07,44,3.40
2014,10,27,07,45,1.20
2014,10,27,07,46,1.00
2014,10,27,07,47,1.40
2014,10,27,07,48,0.30
2014,10,27,07,49,0.00
2014,10,27,07,50,0.00
2014,10,27,07,51,0.00
2014,10,27,07,52,0.00
2014,10,27,07,53,0.80
2014,10,27,07,54,0.00
2014,10,27,07,55,0.00
2014,10,27,07,56,0.00
2014,10,27,07,57,0.00
2014,10,27,07,58,0.00
2014,10,27,07,59,6.70
2014,10,27,08,00,5.50
2014,10,27,08,01,6.00
2014,10,27,08,02,7.70
2014,10,27,08,03,3.90
2014,10,27,08,04,5.80
2014,10,27,08,05,4.80
2014,10,27,08,06,6.00
2014,10,27,08,07,4.90
2014,10,27,08,08,3.30
2014,10,27,08,09,1.80
2014,10,27,08,10,0.00
2014,10,27,08,11,0.00
2014,10,27,08,12,0.00
2014,10,27,08,13,0.00
2014,10,27,08,14,0.00
2014,10,27,08,15,0.00
2014,10,27,08,16,0.00
2014,10,27,08,17,0.00
2014,10,27,08,18,0.00
2014,10,27,08,19,0.00
2014,10,27,08,20,0.00
2014,10,27,08,21,1.10
2014,10,27,08,22,0.20
2014,10,27,08,23,4.20
2014,10,27,08,24,1.90
2014,10,27,08,25,0.10
2014,10,27,08,26,1.90
2014,10,27,08,27,3.40
2014,10,27,08,28,3.70
2014,10,27,08,29,3.70
2014,10,27,08,30,7.30
2014,10,27,08,31,6.70
2014,10,27,08,32,1.80
2014,10,27,08,33,5.70
2014,10,27,08,34,3.10
2014,10,27,08,35,6.10
2014,10,27,08,36,1.80
2014,10,27,08,37,0.20
2014,10,27,08,38,6.60
2014,10,27,08,39,7.50
2014,10,27,08,40,2.80
2014,10,27,08,41,3.60
2014,10,27,08,42,7.10
2014,10,27,08,43,6.40
2014,10,27,08,44,2.40
2014,10,27,08,45,6.10
2014,10,27,08,46,2.30
2014,10,27,08,47,6.50
2014,10,27,08,48,5.60
2014,10,27,08,49,3.70
2014,10,27,08,50,5.10
2014,10,27,08,51,5.40
2014,10,27,08,52,6.00
2014,10,27,08,53,2.80
2014,10,27,08,54,5.10
2014,10,27,08,55,0.00
2014,10,27,08,56,0.00
2014,10,27,08,57,5.30
2014,10,27,08,58,6.40
2014,10,27,08,59,4.10
2014,10,27,09,00,0.00
2014,10,27,09,01,2.90
2014,10,27,09,02,5.40
2014,10,27,09,03,6.00
2014,10,27,09,04,6.30
2014,10,27,09,05,5.50
2014,10,27,09,06,7.20
2014,10,27,09,07,5.70
2014,10,27,09,08,5.30
2014,10,27,09,09,3.50
2014,10,27,09,10,3.70
2014,10,27,09,11,4.30
2014,10,27,09,12,1.00
2014,10,27,09,13,0.40
2014,10,27,09,14,5.10
2014,10,27,09,15,2.70
2014,10,27,09,16,0.00
2014,10,27,09,17,0.50
2014,10,27,09,18,1.40
2014,10,27,09,19,2.70
2014,10,27,09,20,1.90
2014,10,27,09,21,4.70
2014,10,27,09,22,1.00
2014,10,27,09,23,3.00
2014,10,27,09,24,2.30
2014,10,27,09,25,2.90
2014,10,27,09,26,3.90
2014,10,27,09,27,1.50
2014,10,27,09,28,2.00
2014,10,27,09,29,2.50
2014,10,27,09,30,1.00
2014,10,27,09,31,2.10
2014,10,27,09,32,6.50
2014,10,27,09,33,1.00
2014,10,27,09,34,6.30
2014,10,27,09,35,4.60
2014,10,27,09,36,4.70
2014,10,27,09,37,5.40
2014,10,27,09,38,1.70
2014,10,27,09,39,3.30
2014,10,27,09,40,1.30
2014,10,27,09,41,0.00
2014,10,27,09,42,0.00
2014,10,27,09,43,0.00
2014,10,27,09,44,0.00
2014,10,27,09,45,0.00
2014,10,27,09,46,0.10
2014,10,27,09,47,0.00
2014,10,27,09,48,0.00
2014,10,27,09,49,0.10
2014,10,27,09,50,0.70
2014,10,27,09,51,5.60
2014,10,27,09,52,6.00
2014,10,27,09,53,4.30
2014,10,27,09,54,4.10
2014,10,27,09,55,6.80
2014,10,27,09,56,5.70
2014,10,27,09,57,8.40
2014,10,27,09,58,6.80
2014,10,27,09,59,6.10
2014,10,27,10,00,9.00
2014,10,27,10,01,6.20
2014,10,27,10,02,8.80
2014,10,27,10,03,10.00
2014,10,27,10,04,8.50
2014,10,27,10,05,10.10
2014,10,27,10,06,10.30
2014,10,27,10,07,7.30
2014,10,27,10,08,6.90
2014,10,27,10,09,6.10
2014,10,27,10,10,6.70
2014,10,27,10,11,9.20
2014,10,27,10,12,5.10
2014,10,27,10,13,8.20
2014,10,27,10,14,9.80
2014,10,27,10,15,9.90
2014,10,27,10,16,10.70
2014,10,27,10,17,5.90
2014,10,27,10,18,4.40
2014,10,27,10,19,4.50
2014,10,27,10,20,3.90
2014,10,27,10,21,4.00
2014,10,27,10,22,5.90
2014,10,27,10,23,7.40
2014,10,27,10,24,8.60
2014,10,27,10,25,6.60
2014,10,27,10,26,2.90
2014,10,27,10,27,9.20
2014,10,27,10,28,8.30
2014,10,27,10,29,7.00
2014,10,27,10,30,7.90
2014,10,27,10,31,11.70
2014,10,27,10,32,9.20
2014,10,27,10,33,9.70
2014,10,27,10,34,9.20
2014,10,27,10,35,3.90
2014,10,27,10,36,10.50
2014,10,27,10,37,12.70
2014,10,27,10,38,9.30
2014,10,27,10,39,10.90
2014,10,27,10,40,8.00
2014,10,27,10,41,10.60
2014,10,27,10,42,7.70
2014,10,27,10,43,11.50
2014,10,27,10,44,10.10
2014,10,27,10,45,7.60
2014,10,27,10,46,7.40
2014,10,27,10,47,13.70
2014,10,27,10,48,10.30
2014,10,27,10,49,9.40
2014,10,27,10,50,8.70
2014,10,27,10,51,8.60
2014,10,27,10,52,13.40
2014,10,27,10,53,12.00
2014,10,27,10,54,13.70
2014,10,27,10,55,11.30
2014,10,27,10,56,3.10
2014,10,27,10,57,7.80
2014,10,27,10,58,14.60
2014,10,27,10,59,13.40
2014,10,27,11,00,13.40
2014,10,27,11,01,7.60
2014,10,27,11,02,10.60
2014,10,27,11,03,10.30
2014,10,27,11,04,15.00
2014,10,27,11,05,14.80
2014,10,27,11,06,12.00
2014,10,27,11,07,10.50
2014,10,27,11,08,14.90
2014,10,27,11,09,15.50
2014,10,27,11,10,14.10
2014,10,27,11,11,16.50
2014,10,27,11,12,9.70
2014,10,27,11,13,9.60
2014,10,27,11,14,16.50
2014,10,27,11,15,12.10
2014,10,27,11,16,10.70
2014,10,27,11,17,13.50
2014,10,27,11,18,9.30
2014,10,27,11,19,11.40
2014,10,27,11,20,9.60
2014,10,27,11,21,9.40
2014,10,27,11,22,11.80
2014,10,27,11,23,21.30
2014,10,27,11,24,10.00
2014,10,27,11,25,10.40
2014,10,27,11,26,7.00
2014,10,27,11,27,8.20
2014,10,27,11,28,9.30
2014,10,27,11,29,13.60
2014,10,27,11,30,13.20
2014,10,27,11,31,13.20
2014,10,27,11,32,18.70
2014,10,27,11,33,17.40
2014,10,27,11,34,13.90
2014,10,27,11,35,17.40
2014,10,27,11,36,10.30
2014,10,27,11,37,12.10
2014,10,27,11,38,8.40
2014,10,27,11,39,9.50
2014,10,27,11,40,15.00
2014,10,27,11,41,12.40
2014,10,27,11,42,17.50
2014,10,27,11,43,13.00
2014,10,27,11,44,9.60
2014,10,27,11,45,9.90
2014,10,27,11,46,13.90
2014,10,27,11,47,18.40
2014,10,27,11,48,19.00
2014,10,27,11,49,18.50
2014,10,27,11,50,17.20
2014,10,27,11,51,16.50
2014,10,27,11,52,9.20
2014,10,27,11,53,10.90
2014,10,27,11,54,12.90
2014,10,27,11,55,15.50
2014,10,27,11,56,16.50
2014,10,27,11,57,13.00
2014,10,27,11,58,12.90
2014,10,27,11,59,9.90
2014,10,27,12,00,13.10
2014,10,27,12,01,15.10
2014,10,27,12,02,11.60
2014,10,27,12,03,13.80
2014,10,27,12,04,12.00
2014,10,27,12,05,16.30
2014,10,27,12,06,10.50
2014,10,27,12,07,15.40
2014,10,27,12,08,14.40
2014,10,27,12,09,10.70
2014,10,27,12,10,10.20
2014,10,27,12,11,12.70
2014,10,27,12,12,9.70
2014,10,27,12,13,8.30
2014,10,27,12,14,8.50
2014,10,27,12,15,10.90
2014,10,27,12,16,15.80
2014,10,27,12,17,15.60
2014,10,27,12,18,13.30
2014,10,27,12,19,15.70
2014,10,27,12,20,15.50
2014,10,27,12,21,16.20
2014,10,27,12,22,16.50
2014,10,27,12,23,15.00
2014,10,27,12,24,10.30
2014,10,27,12,25,11.30
2014,10,27,12,26,7.90
2014,10,27,12,27,14.10
2014,10,27,12,28,11.00
2014,10,27,12,29,11.80
2014,10,27,12,30,8.30
2014,10,27,12,31,12.30
2014,10,27,12,32,11.30
2014,10,27,12,33,9.00
2014,10,27,12,34,12.90
2014,10,27,12,35,11.30
2014,10,27,12,36,9.20
2014,10,27,12,37,10.90
2014,10,27,12,38,14.10
2014,10,27,12,39,11.00
2014,10,27,12,40,11.40
2014,10,27,12,41,11.50
2014,10,27,12,42,10.60
2014,10,27,12,43,5.10
2014,10,27,12,44,7.60
2014,10,27,12,45,7.70
2014,10,27,12,46,9.20
2014,10,27,12,47,12.00
2014,10,27,12,48,14.20
2014,10,27,12,49,15.10
2014,10,27,12,50,15.40
2014,10,27,12,51,10.30
2014,10,27,12,52,10.40
2014,10,27,12,53,10.00
2014,10,27,12,54,19.80
2014,10,27,12,55,11.50
2014,10,27,12,56,11.70
2014,10,27,12,57,13.40
2014,10,27,12,58,12.30
2014,10,27,12,59,16.40
2014,10,27,13,00,17.90
2014,10,27,13,01,13.80
2014,10,27,13,02,15.90
2014,10,27,13,03,15.60
2014,10,27,13,04,12.50
2014,10,27,13,05,12.40
2014,10,27,13,06,8.20
2014,10,27,13,07,14.50
2014,10,27,13,08,24.70
2014,10,27,13,09,12.10
2014,10,27,13,10,10.20
2014,10,27,13,11,15.40
2014,10,27,13,12,15.80
2014,10,27,13,13,10.90
2014,10,27,13,14,14.70
2014,10,27,13,15,13.30
2014,10,27,13,16,7.10
2014,10,27,13,17,11.40
2014,10,27,13,18,8.30
2014,10,27,13,19,6.80
2014,10,27,13,20,11.30
2014,10,27,13,21,20.10
2014,10,27,13,22,13.30
2014,10,27,13,23,16.50
2014,10,27,13,24,11.90
2014,10,27,13,25,16.60
2014,10,27,13,26,16.90
2014,10,27,13,27,13.90
2014,10,27,13,28,13.80
2014,10,27,13,29,15.10
2014,10,27,13,30,10.90
2014,10,27,13,31,9.30
2014,10,27,13,32,7.50
2014,10,27,13,33,8.00
2014,10,27,13,34,11.60
2014,10,27,13,35,10.90
2014,10,27,13,36,2.30
2014,10,27,13,37,3.10
2014,10,27,13,38,8.50
2014,10,27,13,39,13.80
2014,10,27,13,40,8.20
2014,10,27,13,41,3.90
2014,10,27,13,42,6.00
2014,10,27,13,43,6.70
2014,10,27,13,44,9.80
2014,10,27,13,45,10.10
2014,10,27,13,46,10.60
2014,10,27,13,47,14.20
2014,10,27,13,48,11.70
2014,10,27,13,49,5.00
2014,10,27,13,50,8.90
2014,10,27,13,51,8.70
2014,10,27,13,52,5.20
2014,10,27,13,53,9.90
2014,10,27,13,54,10.00
2014,10,27,13,55,6.10
2014,10,27,13,56,5.60
2014,10,27,13,57,13.30
2014,10,27,13,58,9.40
2014,10,27,13,59,10.20
2014,10,27,14,00,7.10
2014,10,27,14,01,5.00
2014,10,27,14,02,11.30
2014,10,27,14,03,13.70
2014,10,27,14,04,8.60
2014,10,27,14,05,10.50
2014,10,27,14,06,10.40
2014,10,27,14,07,15.20
2014,10,27,14,08,11.80
2014,10,27,14,09,14.40
2014,10,27,14,10,15.10
2014,10,27,14,11,16.00
2014,10,27,14,12,13.10
2014,10,27,14,13,11.80
2014,10,27,14,14,13.70
2014,10,27,14,15,8.90
2014,10,27,14,16,17.90
2014,10,27,14,17,10.20
2014,10,27,14,18,6.40
2014,10,27,14,19,8.90
2014,10,27,14,20,6.10
2014,10,27,14,21,9.10
2014,10,27,14,22,9.70
2014,10,27,14,23,11.80
2014,10,27,14,24,10.20
2014,10,27,14,25,12.10
2014,10,27,14,26,10.70
2014,10,27,14,27,12.00
2014,10,27,14,28,8.30
2014,10,27,14,29,15.60
2014,10,27,14,30,14.40
2014,10,27,14,31,12.00
2014,10,27,14,32,15.50
2014,10,27,14,33,11.00
2014,10,27,14,34,13.90
2014,10,27,14,35,16.30
2014,10,27,14,36,9.70
2014,10,27,14,37,17.90
2014,10,27,14,38,12.80
2014,10,27,14,39,15.20
2014,10,27,14,40,14.00
2014,10,27,14,41,13.50
2014,10,27,14,42,12.10
2014,10,27,14,43,13.00
2014,10,27,14,44,11.70
2014,10,27,14,45,15.80
2014,10,27,14,46,14.40
2014,10,27,14,47,19.20
2014,10,27,14,48,14.20
2014,10,27,14,49,18.10
2014,10,27,14,50,16.80
2014,10,27,14,51,11.90
2014,10,27,14,52,8.30
2014,10,27,14,53,5.60
2014,10,27,14,54,20.60
2014,10,27,14,55,11.70
2014,10,27,14,56,13.00
2014,10,27,14,57,11.30
2014,10,27,14,58,14.50
2014,10,27,14,59,18.70
2014,10,27,15,00,15.40
2014,10,27,15,01,15.00
2014,10,27,15,02,15.30
2014,10,27,15,03,14.90
2014,10,27,15,04,11.60
2014,10,27,15,05,8.40
2014,10,27,15,06,15.10
2014,10,27,15,07,15.50
2014,10,27,15,08,13.10
2014,10,27,15,09,18.60
2014,10,27,15,10,17.10
2014,10,27,15,11,16.30
2014,10,27,15,12,12.90
2014,10,27,15,13,15.50
2014,10,27,15,14,11.30
2014,10,27,15,15,16.80
2014,10,27,15,16,9.10
2014,10,27,15,17,10.80
2014,10,27,15,18,10.80
2014,10,27,15,19,10.70
2014,10,27,15,20,9.40
2014,10,27,15,21,8.50
2014,10,27,15,22,9.70
2014,10,27,15,23,5.90
2014,10,27,15,24,1.40
2014,10,27,15,25,7.60
2014,10,27,15,26,10.60
2014,10,27,15,27,14.70
2014,10,27,15,28,16.10
2014,10,27,15,29,14.20
2014,10,27,15,30,10.50
2014,10,27,15,31,11.40
2014,10,27,15,32,11.20
2014,10,27,15,33,14.10
2014,10,27,15,34,13.40
2014,10,27,15,35,17.00
2014,10,27,15,36,13.80
2014,10,27,15,37,18.10
2014,10,27,15,38,18.80
2014,10,27,15,39,18.30
2014,10,27,15,40,11.50
2014,10,27,15,41,9.30
2014,10,27,15,42,10.60
2014,10,27,15,43,15.40
2014,10,27,15,44,14.30
2014,10,27,15,45,9.70
2014,10,27,15,46,13.00
2014,10,27,15,47,10.50
2014,10,27,15,48,9.10
2014,10,27,15,49,17.00
2014,10,27,15,50,13.40
2014,10,27,15,51,16.00
2014,10,27,15,52,11.50
2014,10,27,15,53,9.40
2014,10,27,15,54,9.40
2014,10,27,15,55,21.20
2014,10,27,15,56,16.60
2014,10,27,15,57,20.00
2014,10,27,15,58,11.50
2014,10,27,15,59,20.80
2014,10,27,16,00,17.50
2014,10,27,16,01,17.10
2014,10,27,16,02,14.90
2014,10,27,16,03,11.20
2014,10,27,16,04,13.50
2014,10,27,16,05,16.70
2014,10,27,16,06,16.00
2014,10,27,16,07,16.10
2014,10,27,16,08,10.80
2014,10,27,16,09,10.50
2014,10,27,16,10,9.50
2014,10,27,16,11,13.00
2014,10,27,16,12,12.40
2014,10,27,16,13,17.10
2014,10,27,16,14,16.20
2014,10,27,16,15,9.90
2014,10,27,16,16,12.50
2014,10,27,16,17,16.50
2014,10,27,16,18,19.60
2014,10,27,16,19,19.60
2014,10,27,16,20,18.20
2014,10,27,16,21,15.50
2014,10,27,16,22,13.10
2014,10,27,16,23,13.00
2014,10,27,16,24,16.80
2014,10,27,16,25,16.80
2014,10,27,16,26,14.60
2014,10,27,16,27,18.30
2014,10,27,16,28,17.30
2014,10,27,16,29,16.60
2014,10,27,16,30,13.70
2014,10,27,16,31,17.50
2014,10,27,16,32,12.00
2014,10,27,16,33,13.10
2014,10,27,16,34,19.50
2014,10,27,16,35,22.90
2014,10,27,16,36,20.90
2014,10,27,16,37,19.20
2014,10,27,16,38,23.10
2014,10,27,16,39,18.20
2014,10,27,16,40,15.50
2014,10,27,16,41,18.50
2014,10,27,16,42,13.60
2014,10,27,16,43,16.90
2014,10,27,16,44,20.60
2014,10,27,16,45,20.70
2014,10,27,16,46,13.90
2014,10,27,16,47,18.30
2014,10,27,16,48,18.30
2014,10,27,16,49,17.10
2014,10,27,16,50,14.90
2014,10,27,16,51,20.70
2014,10,27,16,52,16.00
2014,10,27,16,53,16.30
2014,10,27,16,54,23.30
2014,10,27,16,55,19.10
2014,10,27,16,56,21.20
2014,10,27,16,57,18.20
2014,10,27,16,58,21.10
2014,10,27,16,59,19.00
2014,10,27,17,00,15.90
2014,10,27,17,01,20.80
2014,10,27,17,02,18.20
2014,10,27,17,03,19.20
2014,10,27,17,04,16.50
2014,10,27,17,05,21.90
2014,10,27,17,06,23.00
2014,10,27,17,07,8.10
2014,10,27,17,08,14.60
2014,10,27,17,09,14.40
2014,10,27,17,10,12.60
2014,10,27,17,11,19.10
2014,10,27,17,12,18.70
2014,10,27,17,13,15.10
2014,10,27,17,14,13.40
2014,10,27,17,15,20.00
2014,10,27,17,16,23.60
2014,10,27,17,17,21.10
2014,10,27,17,18,18.10
2014,10,27,17,19,22.70
2014,10,27,17,20,17.90
2014,10,27,17,21,16.70
2014,10,27,17,22,19.50
2014,10,27,17,23,13.60
2014,10,27,17,24,15.00
2014,10,27,17,25,18.30
2014,10,27,17,26,20.10
2014,10,27,17,27,14.00
2014,10,27,17,28,18.50
2014,10,27,17,29,20.70
2014,10,27,17,30,19.90
2014,10,27,17,31,16.20
2014,10,27,17,32,13.50
2014,10,27,17,33,17.40
2014,10,27,17,34,17.60
2014,10,27,17,35,15.90
2014,10,27,17,36,14.50
2014,10,27,17,37,21.20
2014,10,27,17,38,15.30
2014,10,27,17,39,23.50
2014,10,27,17,40,15.20
2014,10,27,17,41,14.90
2014,10,27,17,42,18.40
2014,10,27,17,43,13.30
2014,10,27,17,44,14.20
2014,10,27,17,45,18.20
2014,10,27,17,46,20.60
2014,10,27,17,47,14.70
2014,10,27,17,48,19.40
2014,10,27,17,49,22.80
2014,10,27,17,50,17.60